Wind_Speed
24 25 24 20 14 12 10 9 8 6 5 3 9 15 10 10 7 6 7 6 5 5 6 6 4 4 3 10 7 3 4 6 7 7 14 15 13 9 13 6 5 4 3 3
27 25 21 19 14 11 7 5 3 5 6 3 5 6 7 7 5 5 6 5 3 6 6 4 5 5 6 11 9 4 6 4 7 2 6 14 17 18 15 14 5 6 4 5
30 23 21 18 10 10 6 5 3 1 6 8 7 6 4 2 3 5 4 2 3 5 5 3 9 9 9 6 7 9 9 5 5 2 3 7 14 19 22 19 8 8 12 2
30 24 21 17 9 9 6 6 5 7 7 4 5 6 5 3 1 3 3 2 5 4 4 4 4 9 10 10 7 10 8 7 9 6 4 4 7 12 19 26 24 12 4 11
28 25 20 16 9 9 6 7 8 6 9 6 5 5 5 4 2 3 1 2 5 7 3 4 6 6 8 6 11 9 12 6 9 9 11 12 14 14 14 19 23 23 17 14
28 24 21 16 9 9 7 6 9 9 7 8 6 7 6 4 2 2 4 5 3 2 6 6 7 6 7 5 6 10 9 11 6 3 6 7 13 21 25 23 21 21 22 19
28 24 19 15 11 8 7 7 7 10 10 8 10 7 8 6 4 4 6 5 3 4 5 3 5 7 9 8 6 7 8 9 8 3 3 4 6 7 8 21 22 23 21 14
25 22 17 14 12 9 8 8 8 7 10 13 13 12 11 10 8 7 10 8 4 2 2 4 3 3 3 8 9 9 9 8 3 3 7 12 9 10 9 8 10 20 19 17
21 18 17 16 14 12 9 15 10 9 8 9 11 14 15 15 14 11 12 12 11 8 6 4 4 5 4 4 4 13 14 12 8 4 4 3 3 7 7 5 3 10 17 18
20 17 16 16 14 13 12 12 19 15 11 12 11 12 12 14 16 15 14 14 13 13 10 9 8 9 7 5 7 8 13 13 15 12 7 8 10 9 11 6 5 12 15 14
22 17 17 17 17 15 13 12 11 12 25 15 16 15 14 14 13 14 17 14 18 17 16 10 10 9 9 9 8 9 14 9 10 13 8 9 9 15 12 10 8 12 14 12
21 16 16 18 19 20 18 16 13 15 15 18 21 16 15 14 15 17 20 21 13 15 13 16 11 13 8 11 9 15 12 14 9 11 7 12 7 18 24 13 11 12 11 11
19 18 18 19 18 19 18 20 23 22 19 16 19 28 26 24 24 25 27 23 25 23 25 22 16 14 13 13 16 13 16 16 18 11 10 13 10 12 19 19 18 14 14 14
20 19 20 17 18 17 16 19 19 17 16 15 13 14 17 24 24 23 24 25 31 34 32 27 32 27 18 16 19 16 15 14 19 23 20 11 16 14 14 14 16 17 19 17
24 22 18 16 16 10 14 13 6 5 6 6 6 11 11 8 8 11 15 21 26 33 38 38 30 37 27 24 25 25 26 23 20 14 12 13 13 16 19 20 22 23 25 25
24 23 20 16 9 11 12 8 12 14 12 10 0 2 1 3 4 8 12 17 23 31 36 43 49 18 28 22 29 26 22 19 18 18 20 17 19 18 19 21 24 26 26 28
22 21 19 17 6 9 10 13 17 19 11 6 3 1 4 6 10 10 18 21 20 25 27 35 45 46 31 30 24 18 22 22 23 22 19 19 18 18 17 20 21 20 20 21
22 21 18 16 7 8 12 16 21 12 7 4 5 7 10 10 14 15 18 15 15 21 25 23 29 42 47 14 34 29 21 16 16 15 15 18 16 16 13 13 15 18 19 19
22 21 20 16 8 8 13 20 15 6 4 4 8 16 9 18 14 13 13 10 12 8 18 22 14 22 17 16 14 21 19 18 20 18 19 20 17 16 17 17 18 18 19 20
23 24 21 14 16 13 11 14 7 5 5 6 9 17 23 18 14 11 10 9 7 8 6 7 13 27 35 23 13 18 18 15 12 11 12 13 15 16 18 19 18 19 18 18
21 23 20 16 13 8 5 5 6 8 5 10 15 20 22 17 15 13 8 6 5 5 5 8 9 24 25 15 18 16 15 13 13 13 14 15 14 14 18 21 23 22 24 23
22 21 16 12 9 7 7 8 6 7 7 18 21 23 21 16 11 6 7 7 4 4 3 7 4 13 16 14 20 23 22 21 19 19 16 12 10 14 18 19 20 23 22 21
22 18 11 8 6 7 7 11 10 11 14 20 22 24 20 8 6 7 6 4 4 8 3 3 7 6 5 11 16 19 19 18 17 14 11 7 4 12 17 10 10 9 8 10
19 13 7 5 5 7 13 16 17 19 21 22 23 22 17 13 8 6 5 5 6 3 3 4 8 7 7 9 11 12 12 12 11 9 11 5 5 10 12 16 10 7 11 14
16 8 4 5 14 16 15 16 18 19 19 22 22 19 16 12 7 5 5 4 4 4 3 8 12 8 8 8 10 11 11 10 10 11 10 4 7 6 11 15 19 19 17 12
11 5 10 16 15 13 14 16 17 19 21 21 17 9 6 7 5 5 5 4 3 4 6 7 12 9 7 11 12 12 13 13 12 10 6 4 5 4 7 11 12 14 12 11
7 10 12 13 16 16 15 16 16 18 20 20 14 5 5 7 7 7 6 8 11 10 9 6 7 6 6 11 12 12 13 13 12 10 8 10 10 12 12 13 15 17 16 15
Wind_Direction
332 327 322 327 309 322 318 335 350 17 51 44 118 117 116 123 107 74 56 86 125 142 151 164 165 168 152 183 165 131 151 117 138 180 209 186 198 204 202 220 201 227 294 103
335 326 321 322 309 310 304 315 331 14 97 103 112 125 134 120 81 43 36 48 102 144 157 162 172 179 201 174 172 171 184 149 125 160 242 226 222 216 197 211 194 217 266 134
338 329 320 318 304 295 297 288 235 76 117 136 145 137 127 161 299 312 301 309 62 134 162 131 190 194 175 196 221 204 191 192 198 193 179 194 211 215 219 220 210 216 226 113
340 335 324 313 302 281 284 247 235 223 189 188 150 155 161 187 260 299 300 252 192 167 172 159 164 206 210 211 208 199 198 223 223 221 226 211 208 215 219 220 220 219 221 213
344 342 332 319 298 268 280 239 231 233 215 218 205 188 208 211 277 320 325 176 209 194 176 193 214 202 202 216 219 211 216 232 234 250 254 255 250 236 223 228 230 231 235 246
346 348 343 327 301 262 270 257 229 218 222 210 197 228 213 203 176 59 124 134 117 180 210 210 219 204 195 211 221 213 203 218 209 241 254 272 276 248 235 231 233 227 231 233
346 343 340 332 306 259 266 266 244 226 225 220 228 229 225 225 216 194 166 150 132 191 179 204 209 221 210 212 205 198 196 210 216 258 214 237 251 246 226 235 239 235 232 212
349 349 344 335 313 286 249 269 262 246 231 238 245 246 242 238 233 221 216 211 202 223 200 124 138 173 209 237 236 221 193 196 217 231 234 282 275 254 234 241 249 226 215 206
350 351 354 350 339 311 292 239 272 263 258 245 244 241 239 239 236 237 234 232 235 231 212 214 240 222 219 204 232 217 204 203 223 223 259 258 251 242 208 189 235 188 186 194
346 343 345 346 346 342 325 313 245 255 264 255 246 244 242 237 237 236 248 237 231 228 230 236 244 245 210 217 214 201 200 211 222 232 253 268 258 212 190 192 184 191 188 201
340 335 337 335 330 328 323 317 322 281 246 253 253 244 242 239 237 236 242 249 242 232 225 230 234 242 240 229 217 198 194 201 211 221 231 260 247 202 187 217 215 207 208 218
341 333 332 329 323 320 316 312 315 306 290 256 247 240 241 243 245 249 240 230 227 206 221 228 226 229 232 229 242 215 208 207 216 207 237 255 241 203 216 221 234 224 222 226
339 337 331 326 324 320 311 313 314 309 297 277 258 242 250 258 259 259 251 244 236 229 226 221 220 223 227 228 237 238 227 216 227 238 257 251 240 228 231 233 237 234 239 245
338 335 331 330 328 320 315 317 311 307 301 289 254 240 244 248 255 259 262 250 246 243 237 238 234 235 244 240 238 231 240 237 240 248 245 255 236 240 236 233 238 243 245 248
341 338 335 336 337 332 325 334 359 356 350 301 278 243 233 260 261 260 268 264 258 248 240 228 239 235 240 242 242 241 242 244 244 255 265 252 246 249 250 250 254 258 257 257
347 344 340 338 329 331 342 350 348 348 336 333 136 183 70 335 275 269 289 281 263 250 246 237 226 221 219 235 241 243 249 243 252 246 254 254 258 257 252 257 263 265 265 262
351 346 346 339 307 332 353 341 334 332 331 354 80 48 331 312 335 321 314 316 289 258 251 244 233 225 240 233 232 234 243 250 246 247 250 250 252 260 261 265 268 272 271 271
353 353 347 343 308 316 338 340 332 324 344 40 34 346 326 321 339 338 332 320 292 262 248 250 241 229 231 268 232 235 231 242 248 248 243 240 258 258 261 276 273 275 275 269
354 354 351 344 318 301 319 324 330 331 4 31 21 12 346 344 330 315 322 334 327 272 253 250 238 229 213 232 230 235 239 250 253 251 249 250 249 254 271 282 284 283 276 264
358 355 353 346 329 312 307 324 336 352 7 12 354 359 353 347 336 297 302 306 312 293 293 165 224 233 232 254 213 229 235 244 238 241 239 240 254 270 280 287 284 276 277 267
354 353 355 353 351 349 1 350 356 358 11 350 342 341 339 349 333 307 263 268 260 273 221 184 227 251 250 242 208 215 215 236 251 258 258 256 265 269 281 288 288 282 269 260
359 352 349 356 9 7 5 9 11 359 353 345 343 338 326 337 327 302 291 290 268 286 206 194 252 252 250 237 222 230 241 253 256 264 261 255 258 286 302 297 287 289 271 244
356 355 351 2 15 22 2 348 337 328 329 332 337 345 334 327 311 277 274 281 275 300 278 276 264 275 247 226 230 236 239 246 248 244 238 193 324 342 345 316 304 291 236 232
354 345 346 7 350 337 335 331 330 326 323 315 313 326 325 303 303 276 270 274 290 279 269 283 317 295 263 244 229 216 216 224 224 215 183 174 7 7 31 32 26 311 255 231
352 335 312 322 326 325 328 331 333 331 324 319 314 313 318 299 269 264 279 273 260 251 312 333 333 292 253 219 206 202 197 186 178 168 170 161 18 23 17 12 9 13 19 10
326 313 301 307 314 315 320 326 333 335 334 328 323 312 282 279 262 261 249 261 269 306 320 336 348 330 208 186 179 175 172 167 170 165 175 228 314 326 332 321 335 329 316 310
285 299 303 305 310 307 309 315 321 329 336 337 330 291 265 288 270 263 255 257 276 265 273 294 310 340 194 195 193 191 189 190 200 229 231 252 271 279 285 294 301 303 305 302
Height
3047 3043 3038 3035 3033 3031 3030 3028 3027 3024 3021 3023 3021 3021 3022 3023 3024 3024 3024 3025 3025 3027 3027 3029 3030 3031 3031 3032 3034 3036 3037 3039 3044 3047 3047 3049 3051 3054 3056 3058 3059 3058 3057 3056
3044 3039 3034 3031 3029 3028 3028 3027 3027 3025 3022 3025 3024 3024 3024 3025 3025 3026 3025 3025 3025 3025 3028 3031 3030 3030 3030 3032 3035 3037 3038 3040 3044 3047 3050 3047 3047 3050 3052 3054 3055 3055 3055 3054
3039 3035 3031 3027 3026 3026 3026 3026 3026 3026 3024 3024 3025 3025 3026 3026 3025 3025 3025 3025 3025 3026 3028 3028 3029 3030 3032 3033 3033 3035 3037 3039 3040 3041 3041 3042 3042 3045 3047 3050 3052 3054 3053 3053
3036 3032 3029 3025 3023 3024 3024 3024 3024 3025 3025 3025 3024 3024 3025 3025 3025 3024 3024 3024 3026 3028 3029 3030 3030 3030 3032 3033 3034 3035 3038 3038 3039 3039 3040 3040 3040 3041 3042 3043 3047 3050 3050 3052
3033 3029 3025 3023 3022 3021 3022 3022 3023 3023 3024 3024 3025 3025 3025 3025 3024 3024 3024 3025 3025 3026 3029 3031 3031 3030 3031 3032 3033 3034 3035 3037 3037 3037 3038 3038 3038 3038 3039 3040 3042 3044 3046 3047
3032 3029 3026 3022 3020 3021 3019 3020 3021 3022 3022 3023 3025 3025 3024 3024 3024 3025 3024 3024 3026 3026 3027 3028 3029 3029 3030 3031 3032 3033 3035 3035 3037 3037 3036 3035 3034 3029 3031 3033 3035 3039 3041 3043
3031 3026 3024 3021 3019 3019 3019 3018 3019 3020 3021 3022 3022 3023 3023 3024 3024 3025 3025 3025 3025 3027 3026 3027 3027 3028 3029 3030 3031 3031 3033 3034 3036 3036 3036 3034 3026 3025 3025 3027 3030 3033 3036 3039
3029 3024 3022 3020 3018 3017 3017 3017 3018 3017 3017 3018 3020 3021 3022 3023 3024 3024 3024 3025 3026 3026 3027 3029 3029 3029 3030 3029 3029 3030 3033 3034 3035 3035 3032 3027 3024 3023 3024 3025 3026 3026 3031 3036
3028 3024 3021 3019 3018 3016 3015 3015 3015 3015 3016 3016 3016 3017 3019 3021 3022 3023 3023 3024 3024 3026 3027 3028 3028 3027 3027 3028 3027 3027 3030 3032 3034 3033 3032 3025 3022 3021 3023 3024 3025 3024 3029 3033
3027 3024 3022 3020 3019 3016 3013 3012 3012 3013 3013 3012 3013 3014 3015 3016 3018 3020 3021 3021 3023 3024 3025 3026 3026 3025 3025 3026 3025 3025 3027 3029 3029 3031 3029 3023 3021 3021 3022 3026 3029 3025 3028 3031
3026 3023 3021 3019 3017 3015 3013 3010 3008 3008 3008 3008 3009 3010 3011 3012 3014 3016 3017 3020 3020 3021 3022 3023 3022 3022 3022 3021 3021 3021 3024 3025 3025 3027 3027 3022 3017 3019 3023 3022 3022 3025 3027 3029
3024 3021 3019 3016 3013 3011 3009 3006 3005 3003 3003 3004 3002 3003 3006 3007 3009 3010 3012 3014 3014 3016 3017 3018 3018 3018 3018 3018 3018 3017 3020 3019 3020 3021 3019 3016 3015 3017 3017 3019 3021 3023 3025 3026
3023 3019 3017 3014 3010 3008 3005 3002 3000 2997 2995 2996 2996 2997 2999 3000 3003 3004 3006 3008 3008 3010 3011 3012 3013 3013 3014 3014 3013 3013 3012 3013 3014 3015 3014 3013 3014 3014 3016 3018 3019 3021 3022 3023
3021 3017 3013 3011 3008 3005 3002 2999 2996 2994 2991 2989 2990 2991 2992 2994 2996 2997 2999 3001 3001 3003 3005 3006 3006 3007 3008 3009 3010 3008 3010 3008 3008 3009 3010 3011 3011 3012 3014 3015 3016 3018 3019 3020
3020 3015 3011 3008 3006 3003 3001 2998 2994 2991 2992 2988 2988 2987 2990 2991 2992 2993 2993 2993 2992 2991 2993 2995 2997 2999 3003 3002 3001 3000 3001 3003 3004 3005 3006 3007 3009 3008 3010 3011 3012 3012 3014 3015
3019 3014 3010 3007 3004 3002 3000 2998 2995 2991 2989 2987 2987 2988 2988 2988 2988 2988 2988 2986 2983 2982 2981 2982 2985 2991 2994 2993 2990 2994 2996 2998 3000 3001 3001 3003 3003 3004 3005 3005 3006 3006 3007 3007
3018 3013 3008 3005 3003 3002 3000 3000 2996 2991 2988 2986 2987 2987 2988 2987 2986 2984 2981 2977 2974 2974 2972 2970 2976 2984 2984 2982 2983 2987 2990 2992 2994 2995 2997 2998 2999 2999 3000 2999 2999 2999 3000 2999
3017 3012 3008 3004 3002 3001 2999 2997 2994 2990 2989 2987 2988 2988 2986 2985 2982 2979 2977 2973 2969 2966 2966 2967 2969 2975 2976 2975 2978 2982 2985 2988 2989 2990 2992 2993 2995 2995 2995 2995 2994 2994 2994 2993
3017 3012 3007 3004 3002 3001 2999 2996 2993 2991 2993 2989 2989 2988 2987 2983 2980 2978 2976 2971 2967 2964 2960 2962 2967 2966 2969 2973 2975 2978 2982 2983 2985 2986 2987 2988 2989 2990 2990 2990 2989 2988 2988 2988
3016 3012 3006 3002 3001 2999 2998 2995 2993 2991 2991 2990 2990 2988 2985 2984 2979 2977 2976 2970 2968 2963 2960 2961 2963 2961 2965 2967 2971 2974 2977 2980 2981 2982 2983 2984 2985 2986 2985 2984 2983 2983 2982 2982
3016 3011 3007 3003 2999 2998 2997 2996 2995 2993 2993 2992 2990 2988 2984 2982 2980 2977 2976 2971 2968 2964 2961 2962 2962 2962 2962 2963 2967 2970 2974 2976 2978 2979 2980 2981 2981 2981 2980 2979 2977 2976 2976 2976
3014 3011 3007 3004 3002 3001 3001 2999 2998 2996 2995 2994 2990 2987 2984 2981 2979 2977 2974 2971 2968 2963 2962 2962 2961 2959 2959 2961 2964 2967 2970 2972 2974 2975 2975 2977 2978 2977 2974 2972 2969 2967 2965 2967
3013 3011 3008 3006 3007 3006 3004 3003 3001 2998 2996 2992 2989 2986 2982 2980 2979 2977 2974 2971 2968 2965 2963 2961 2959 2959 2958 2959 2961 2964 2966 2968 2970 2971 2972 2975 2975 2972 2968 2966 2964 2963 2963 2964
3012 3011 3010 3010 3008 3006 3005 3003 3000 2998 2994 2991 2988 2986 2983 2980 2978 2975 2972 2970 2968 2965 2963 2961 2960 2958 2957 2958 2959 2961 2963 2965 2967 2968 2970 2972 2972 2970 2968 2966 2963 2962 2961 2962
3012 3012 3011 3010 3010 3007 3004 3001 2998 2995 2992 2988 2985 2983 2982 2978 2976 2974 2971 2969 2966 2964 2963 2962 2959 2958 2957 2957 2958 2959 2961 2963 2965 2966 2968 2970 2970 2969 2968 2967 2965 2963 2962 2962
3010 3009 3009 3008 3007 3005 3002 2999 2996 2993 2990 2987 2983 2981 2978 2976 2974 2972 2969 2968 2965 2965 2963 2961 2959 2956 2956 2957 2958 2960 2962 2963 2965 2966 2967 2968 2968 2969 2968 2967 2966 2964 2963 2962
3005 3006 3005 3004 3002 3001 2999 2996 2993 2990 2988 2986 2983 2981 2979 2975 2971 2970 2967 2966 2965 2963 2962 2960 2959 2958 2957 2958 2959 2961 2962 2963 2963 2964 2965 2966 2966 2966 2966 2965 2964 2962 2961 2959